[[{"header":{"parameterUnit":"m.s-1","parameterCategory":1,"la1":30.2991,"la2":30.254,"lo1":-89.0895,"lo2":-89.0444,"dy":0.0017,"dx":0.0017,"nx":28,"ny":28,"refTime":"2024-04-17T21:00:00:Z","depth":0,"parameterNumber":2,"parameterNumberName":"U-component_of_WINDS"},"data":[0,0,0,0,0,0,0,0,0,0,0,0,0,0,0,0,0,0,0,0,0,0,0,0,0,0,0,0,0,0,0,0,0,0,0,0,0,0,0,0,0,0,0,0,0,0,0,0,0,0,0,0,0,0,0,0,0,0,-1.1258,-1.1257,0,-1.1191,-1.119,-1.1189,-1.1137,-1.1137,-1.1136,-1.1136,-1.1068,-1.1066,-1.1065,0,0,0,0,0,0,0,0,0,0,0,0,0,-1.1345,-1.1343,-1.1258,-1.1257,-1.1257,-1.1191,-1.119,-1.1189,-1.1137,-1.1137,-1.1136,-1.1136,-1.1068,-1.1067,-1.1065,0,0,0,0,0,0,0,0,0,0,0,0,0,-1.1295,-1.1343,-1.1258,-1.1223,-1.1219,-1.1191,-1.119,-1.1189,-1.1137,-1.1137,-1.1136,-1.1135,-1.1069,-1.1067,-1.1065,-1.1067,0,0,-1.1059,-1.1058,0,0,0,0,0,0,0,0,-1.1298,-1.1292,-1.1229,-1.1225,-1.1221,-1.1172,-1.1195,-1.1148,-1.1138,-1.1168,-1.1136,-1.1135,-1.1103,-1.1098,-1.1087,-1.1064,-1.1061,-1.1058,-1.1057,-1.1056,-1.1056,0,0,0,0,0,0,0,-1.1302,-1.1295,-1.1232,-1.1228,-1.1223,-1.1211,-1.1203,-1.1186,-1.1141,-1.1166,-1.1162,-1.1154,-1.1101,-1.1089,-1.1085,-1.106,-1.1058,-1.1057,-1.1055,-1.1055,-1.1036,-1.1037,0,0,0,0,0,0,-1.131,-1.1298,-1.1234,-1.123,-1.1258,-1.121,-1.1201,-1.1188,-1.1141,-1.1133,-1.1155,-1.1152,-1.1093,-1.1088,-1.1083,-1.1082,-1.1056,-1.1054,-1.1053,-1.1036,-1.1037,-1.1037,0,0,0,0,0,0,-1.1312,-1.1305,-1.1236,-1.1263,-1.1253,-1.1209,-1.1195,-1.1187,-1.1176,-1.1133,-1.1125,-1.1152,-1.1092,-1.1085,-1.1071,-1.1079,-1.1054,-1.1052,-1.1035,-1.1036,-1.1037,-1.1082,0,0,0,0,0,0,-1.1315,-1.1306,-1.1306,-1.1263,-1.1252,-1.1226,-1.1196,-1.1186,-1.1172,-1.1168,-1.1127,-1.112,-1.1091,-1.1075,-1.1069,-1.1076,-1.105,-1.1034,-1.1035,-1.1037,-1.1079,-1.1084,-1.1088,0,0,0,0,0,-1.1318,-1.1321,-1.1306,-1.1299,-1.125,-1.1226,-1.122,-1.1187,-1.1173,-1.1173,-1.1146,-1.1121,-1.108,-1.1074,-1.1067,-1.1073,-1.1033,-1.1035,-1.1037,-1.1077,-1.1083,-1.1088,0,0,0,0,0,0,-1.1366,-1.1315,-1.1298,-1.1287,-1.1261,-1.1218,-1.1216,-1.1194,-1.1172,-1.1169,-1.1129,-1.112,-1.1111,-1.1091,-1.1085,-1.1074,-1.1053,-1.1054,-1.1087,-1.1092,-1.1096,-1.1101,-1.1048,0,0,0,0,0,-1.1376,-1.136,-1.1316,-1.1311,-1.1299,-1.126,-1.1248,-1.1225,-1.1197,-1.1186,-1.1158,-1.1132,-1.1113,-1.1102,-1.1082,-1.1077,-1.1067,-1.1078,-1.1083,-1.1086,-1.1087,-1.1083,-1.1087,-1.1043,-1.1043,-1.1043,0,0,-1.1395,-1.1365,-1.1357,-1.132,-1.1297,-1.1282,-1.1251,-1.1237,-1.1225,-1.1184,-1.1169,-1.1148,-1.1117,-1.1107,-1.1102,-1.109,-1.1098,-1.1089,-1.1092,-1.109,-1.1085,-1.109,-1.1093,-1.1044,-1.1044,-1.1043,0,0,-1.1421,-1.1397,-1.139,-1.1369,-1.1335,-1.1309,-1.1308,-1.1268,-1.1252,-1.1236,-1.1205,-1.1192,-1.116,-1.1139,-1.1125,-1.1146,-1.1123,-1.1141,-1.1164,-1.1161,-1.1164,-1.1167,-1.1175,-1.1178,-1.1142,-1.1142,-1.1142,0,-1.1449,-1.1425,-1.139,-1.1377,-1.1361,-1.1324,-1.1317,-1.1298,-1.126,-1.1251,-1.1239,-1.1199,-1.1175,-1.116,-1.1166,-1.1155,-1.1153,-1.1144,-1.1167,-1.1169,-1.1171,-1.1178,-1.1181,-1.1144,-1.1144,-1.1144,-1.1143,0,-1.1461,-1.1445,-1.1443,-1.1407,-1.1392,-1.1382,-1.1346,-1.1335,-1.1314,-1.129,-1.1275,-1.1246,-1.122,-1.1215,-1.1194,-1.1198,-1.1192,-1.1174,-1.1152,-1.1179,-1.1184,-1.1186,-1.1148,-1.1147,-1.1146,-1.1145,0,0,-1.1514,-1.146,-1.146,-1.1443,-1.1404,-1.1391,-1.1381,-1.1355,-1.1347,-1.1323,-1.1313,-1.1288,-1.1271,-1.1255,-1.1231,-1.1229,-1.1247,-1.1211,-1.121,-1.1218,-1.125,-1.1263,-1.1267,-1.1232,-1.1233,-1.1233,-1.1253,0,-1.1535,-1.1512,-1.1481,-1.1469,-1.1454,-1.1419,-1.141,-1.1385,-1.1363,-1.1348,-1.1324,-1.1306,-1.1286,-1.1276,-1.1272,-1.1246,-1.1253,-1.1244,-1.1223,-1.1223,-1.1231,-1.1269,-1.1283,-1.1303,-1.1254,-1.1255,-1.1255,0,-1.1555,-1.1532,-1.1519,-1.1482,-1.1474,-1.1466,-1.1441,-1.1426,-1.1399,-1.1383,-1.1365,-1.134,-1.1328,-1.131,-1.1293,-1.1288,-1.1278,-1.1264,-1.1264,-1.126,-1.124,-1.1266,-1.1308,-1.1311,-1.1258,-1.1258,-1.1258,0,-1.1595,-1.1561,-1.1549,-1.1536,-1.1492,-1.1488,-1.147,-1.1441,-1.1428,-1.1406,-1.1398,-1.1375,-1.1363,-1.1346,-1.1316,-1.1305,-1.1302,-1.1281,-1.1289,-1.129,-1.1289,-1.1289,-1.1329,-1.1284,-1.1284,-1.1284,-1.1284,0,-1.162,-1.1613,-1.1566,-1.1559,-1.155,-1.1515,-1.1508,-1.1487,-1.1462,-1.1451,-1.142,-1.141,-1.1371,-1.1357,-1.1333,-1.1323,-1.1318,-1.1305,-1.1298,-1.1307,-1.1308,-1.1299,-1.1296,-1.1285,-1.1284,-1.1284,-1.1284,0,-1.1663,-1.1631,-1.1615,-1.1576,-1.1566,-1.1561,-1.1528,-1.152,-1.1496,-1.1482,-1.1477,-1.144,-1.1422,-1.1391,-1.1363,-1.1348,-1.1342,-1.1332,-1.1351,-1.1347,-1.1356,-1.1356,-1.1391,-1.1394,-1.1348,-1.1348,-1.1348,0,-1.168,-1.1674,-1.1634,-1.1624,-1.1607,-1.1591,-1.1577,-1.1543,-1.153,-1.1499,-1.1495,-1.1474,-1.1456,-1.1428,-1.14,-1.1379,-1.1368,-1.1382,-1.1364,-1.1373,-1.1367,-1.1368,-1.1367,-1.1385,-1.1386,-1.1386,-1.1387,0,-1.1715,-1.17,-1.1681,-1.1658,-1.1642,-1.1622,-1.16,-1.1594,-1.1555,-1.1543,-1.1524,-1.151,-1.1482,-1.1462,-1.1437,-1.142,-1.1397,-1.1393,-1.1393,-1.1402,-1.1413,-1.1407,-1.1361,-1.1392,-1.1391,-1.1391,-1.1391,-1.1391,-1.1745,-1.1738,-1.1709,-1.169,-1.167,-1.1651,-1.1641,-1.1617,-1.16,-1.1574,-1.1556,-1.1538,-1.1512,-1.1476,-1.146,-1.1446,-1.1436,-1.1437,-1.1437,-1.1437,-1.1441,-1.1416,-1.1442,-1.1442,-1.1441,-1.1441,-1.1441,0,-1.1778,-1.1758,-1.1741,-1.1711,-1.1696,-1.1676,-1.1652,-1.1641,-1.1625,-1.1602,-1.1585,-1.1563,-1.1544,-1.1515,-1.1493,-1.1488,-1.1477,-1.1484,-1.1483,-1.148,-1.1451,-1.1453,-1.1493,-1.1493,-1.1493,-1.1493,-1.1493,-1.1493,-1.1794,-1.1781,-1.1763,-1.174,-1.172,-1.1702,-1.169,-1.1672,-1.1654,-1.1631,-1.1614,-1.1595,-1.157,-1.1547,-1.1529,-1.1521,-1.1514,-1.1524,-1.1513,-1.1486,-1.1482,-1.1477,-1.1478,-1.1523,-1.1523,-1.1542,-1.1542,-1.1542]},{"header":{"parameterUnit":"m.s-1","parameterCategory":1,"la1":30.2991,"la2":30.254,"lo1":-89.0895,"lo2":-89.0444,"dy":0.0017,"dx":0.0017,"nx":28,"ny":28,"refTime":"2024-04-17T21:00:00:Z","depth":0,"parameterNumber":3,"parameterNumberName":"V-component_of_WINDS"},"data":[0,0,0,0,0,0,0,0,0,0,0,0,0,0,0,0,0,0,0,0,0,0,0,0,0,0,0,0,0,0,0,0,0,0,0,0,0,0,0,0,0,0,0,0,0,0,0,0,0,0,0,0,0,0,0,0,0,0,5.1159,5.1159,0,5.1146,5.1146,5.1146,5.1115,5.1115,5.1114,5.1113,5.1097,5.1097,5.1097,0,0,0,0,0,0,0,0,0,0,0,0,0,5.1156,5.1156,5.1159,5.1159,5.1159,5.1146,5.1146,5.1146,5.1115,5.1114,5.1114,5.1113,5.1097,5.1097,5.1097,0,0,0,0,0,0,0,0,0,0,0,0,0,5.1152,5.1156,5.1159,5.1142,5.1141,5.1146,5.1146,5.1146,5.1115,5.1114,5.1114,5.1113,5.1096,5.1097,5.1097,5.1117,0,0,5.1098,5.1098,0,0,0,0,0,0,0,0,5.1152,5.1152,5.1145,5.1144,5.1142,5.1131,5.1139,5.1136,5.1116,5.1125,5.1113,5.1112,5.1109,5.1108,5.1107,5.1116,5.1116,5.1098,5.1098,5.1098,5.1098,0,0,0,0,0,0,0,5.1152,5.1152,5.1154,5.1145,5.1143,5.1135,5.1133,5.1138,5.1122,5.1124,5.1122,5.1121,5.1108,5.1107,5.1107,5.1115,5.1098,5.1098,5.1098,5.1098,5.1142,5.1143,0,0,0,0,0,0,5.1155,5.1152,5.1154,5.1154,5.1145,5.1136,5.1134,5.1136,5.1122,5.1119,5.1122,5.1119,5.1107,5.1107,5.1106,5.1131,5.1098,5.1098,5.1098,5.1141,5.1143,5.1144,0,0,0,0,0,0,5.1155,5.1156,5.1155,5.1153,5.1152,5.1137,5.1139,5.1136,5.1136,5.112,5.1117,5.1124,5.1107,5.1106,5.1115,5.113,5.1098,5.1098,5.114,5.1142,5.1143,5.1179,0,0,0,0,0,0,5.1155,5.1156,5.1164,5.1153,5.1152,5.1165,5.114,5.1136,5.1136,5.1133,5.1122,5.1119,5.1106,5.1115,5.1116,5.1129,5.1098,5.1139,5.1141,5.1143,5.1177,5.1182,5.1186,0,0,0,0,0,5.1155,5.1173,5.1164,5.1165,5.1162,5.1166,5.1166,5.1151,5.1138,5.1145,5.1136,5.112,5.1128,5.1116,5.1117,5.1131,5.1138,5.114,5.1143,5.1175,5.1181,5.1186,0,0,0,0,0,0,5.1185,5.1171,5.1161,5.1177,5.1173,5.1161,5.117,5.1157,5.1156,5.1154,5.1134,5.1132,5.1145,5.1138,5.1126,5.1151,5.113,5.1133,5.1155,5.116,5.1165,5.1167,5.1099,0,0,0,0,0,5.1193,5.1199,5.1186,5.1201,5.12,5.1186,5.1187,5.1176,5.1171,5.1169,5.116,5.1155,5.1156,5.1158,5.1158,5.1175,5.1173,5.1185,5.119,5.1194,5.1197,5.1207,5.1213,5.1152,5.1152,5.1152,0,0,5.121,5.1204,5.1208,5.1207,5.1202,5.1209,5.1184,5.1191,5.1195,5.1169,5.1179,5.1172,5.1165,5.118,5.1185,5.1175,5.1213,5.1197,5.12,5.1201,5.1211,5.1216,5.1222,5.1153,5.1153,5.1153,0,0,5.1245,5.124,5.1253,5.125,5.1244,5.1235,5.1238,5.1229,5.1224,5.1233,5.1215,5.1219,5.1221,5.1218,5.1217,5.1252,5.1238,5.1253,5.1278,5.1289,5.1294,5.1298,5.1312,5.1318,5.1255,5.1255,5.1255,0,5.1266,5.1276,5.126,5.1269,5.127,5.1248,5.1261,5.1258,5.1253,5.1254,5.1242,5.1247,5.124,5.1255,5.1264,5.1262,5.1266,5.1254,5.1294,5.1298,5.1302,5.1316,5.1321,5.1257,5.1257,5.1257,5.1257,0,5.1304,5.131,5.1321,5.1319,5.132,5.1331,5.1317,5.132,5.1309,5.1301,5.1312,5.1304,5.1303,5.1306,5.1294,5.1319,5.1313,5.1298,5.1277,5.131,5.1323,5.1328,5.126,5.1259,5.1259,5.1258,0,0,5.1356,5.1347,5.1351,5.1351,5.1344,5.1349,5.1359,5.136,5.1364,5.1361,5.1369,5.1373,5.136,5.1359,5.1347,5.1356,5.1387,5.134,5.1339,5.1351,5.1416,5.1429,5.1435,5.1377,5.1378,5.1378,5.1417,0,5.1391,5.1409,5.1396,5.1416,5.1423,5.1403,5.1412,5.1409,5.1402,5.1406,5.1397,5.1401,5.1383,5.1382,5.139,5.1382,5.14,5.1378,5.1385,5.1386,5.139,5.1441,5.1454,5.1491,5.1422,5.1423,5.1423,0,5.1433,5.1435,5.1456,5.145,5.1452,5.1461,5.1462,5.1466,5.1462,5.1456,5.1456,5.1442,5.1451,5.1431,5.1444,5.143,5.1431,5.1428,5.1429,5.143,5.1408,5.1446,5.1502,5.1509,5.143,5.143,5.1429,0,5.1473,5.1479,5.1494,5.1494,5.1486,5.1493,5.149,5.1485,5.1487,5.1488,5.1489,5.149,5.1491,5.1492,5.1479,5.1464,5.1494,5.1472,5.1491,5.1491,5.1499,5.1499,5.1558,5.1497,5.1497,5.1497,5.1497,0,5.1513,5.1528,5.1512,5.1521,5.1537,5.1521,5.1537,5.1532,5.1528,5.1536,5.1517,5.1525,5.1506,5.1511,5.1501,5.1515,5.1514,5.151,5.1508,5.1513,5.1514,5.1516,5.1513,5.1498,5.1498,5.1498,5.1497,0,5.156,5.155,5.1565,5.1557,5.1556,5.1568,5.1561,5.1569,5.1561,5.1571,5.1573,5.156,5.1566,5.1552,5.1555,5.1548,5.1569,5.1561,5.1571,5.1569,5.159,5.1589,5.1654,5.1662,5.1594,5.1594,5.1595,0,5.1588,5.1599,5.1594,5.1598,5.1597,5.1604,5.1607,5.1592,5.1596,5.1593,5.1602,5.1606,5.1609,5.1619,5.161,5.1612,5.1606,5.1628,5.1606,5.1612,5.1609,5.1609,5.1611,5.1633,5.1634,5.1635,5.1635,0,5.1639,5.1634,5.164,5.1644,5.1648,5.165,5.165,5.1655,5.1639,5.1644,5.1651,5.1653,5.1658,5.1663,5.1664,5.166,5.1646,5.1642,5.1647,5.1654,5.166,5.166,5.1586,5.1641,5.1641,5.164,5.164,5.164,5.1679,5.1689,5.1687,5.1694,5.1694,5.1695,5.1703,5.1697,5.1702,5.1706,5.1696,5.1706,5.1703,5.1703,5.1701,5.1707,5.1697,5.1704,5.1706,5.1708,5.1713,5.1658,5.1707,5.1707,5.1707,5.1707,5.1706,0,5.1732,5.173,5.1736,5.1739,5.1745,5.1731,5.1732,5.1737,5.1746,5.1745,5.1749,5.1757,5.1762,5.1754,5.1758,5.1765,5.1759,5.1767,5.1767,5.1767,5.172,5.1717,5.1772,5.1772,5.1772,5.1772,5.1772,5.1772,5.176,5.1776,5.1771,5.1788,5.1785,5.1795,5.1797,5.1799,5.1798,5.1809,5.1814,5.1808,5.1805,5.1808,5.1813,5.181,5.1813,5.1824,5.182,5.1776,5.177,5.1764,5.1761,5.1824,5.1824,5.1866,5.1866,5.1867]}]]